Simultaneous Nadir Overpasses (SNOs) Predictions

Prediction of SNOs over PacNW region [( 10.00, 139.50) to ( 22.70, 165.60)] between AQUA and NPP Satellites:

Table of predicted SNOs over PacNW region for the next 30.0 days since TLE Epoch: 4/24/2020
Index Date (AQUA) Time (AQUA) AQUA Lat,Lon Date (NPP) Time (NPP) NPP Lat,Lon Distance(km) Time Diff (sec)
1 04/30/2020 15:10:07 22.59, 159.83 04/30/2020 15:10:45 23.17, 157.24 272.62 38
2 05/08/2020 15:59:30 22.63, 147.48 05/08/2020 16:01:28 23.28, 144.59 305.53 118
3 05/16/2020 15:09:59 22.60, 159.85 05/16/2020 15:10:43 23.21, 157.26 273.82 44




NCC Satellite Simultaneous Nadir Overpasses (SNOs) Prediction Service
